FW0130 Weather Reports


time (UTC)temp
C
wind
direction
speed
KPH
gust
KPH
rain 1hr
cm
rain 24hr
cm
rain mn
cm
humidity
%
barometer
mb
20260504234559 26 169 3.2 8.0 0.00 0.05 0.05 46 998.8
20260504233052 26 188 3.2 11.3 0.00 0.05 0.05 46 998.8
20260504231534 27 219 0.0 11.3 0.00 0.05 0.05 45 999.0
20260504230028 27 146 3.2 9.7 0.00 0.05 0.05 45 999.1
20260504224516 27 174 1.6 9.7 0.00 0.05 0.05 45 999.0
20260504223003 27 110 3.2 9.7 0.00 0.05 0.05 43 999.3
20260504221556 28 248 1.6 12.9 0.00 0.05 0.05 43 999.3
20260504220056 28 258 1.6 12.9 0.00 0.05 0.05 44 999.3
20260504214537 28 234 4.8 14.5 0.00 0.05 0.05 42 999.3
20260504213023 28 149 3.2 14.5 0.00 0.05 0.05 44 999.3
20260504211522 28 162 4.8 11.3 0.00 0.05 0.05 44 999.2
20260504210024 27 172 4.8 14.5 0.00 0.05 0.05 46 999.3
20260504204522 27 153 0.0 12.9 0.00 0.05 0.05 48 999.5
20260504203027 26 230 3.2 11.3 0.00 0.05 0.05 51 999.7
20260504201523 25 229 1.6 6.4 0.00 0.05 0.05 57 999.9
20260504200016 23 158 1.6 6.4 0.00 0.05 0.05 64 999.9
20260504194509 20 148 1.6 4.8 0.00 0.05 0.05 78 1000.1
20260504193007 18 143 0.0 4.8 0.00 0.05 0.05 85 1000.0
20260504191520 18 142 0.0 0.0 0.03 0.05 0.05 91 1001.0
20260504190008 17 139 0.0 3.2 0.05 0.05 0.05 90 1000.8
20260504184512 17 146 0.0 0.0 0.05 0.05 0.05 89 1001.5
20260504183110 18 146 0.0 0.0 0.05 0.05 0.05 86 1001.6
20260504181549 18 146 0.0 1.6 0.03 0.03 0.03 81 1001.6
20260504180024 20 146 0.0 1.6 0.00 0.00 0.00 73 1001.6
20260504174524 22 146 0.0 1.6 0.00 0.00 0.00 60 1001.7
20260504173027 22 148 0.0 1.6 0.00 0.00 0.00 55 1001.8
20260504171510 22 132 0.0 0.0 0.00 0.00 0.00 59 1002.1
20260504081527 13 359 0.0 0.0 0.00 0.00 0.00 81 1004.3
20260504050005 17 89 0.0 1.6 0.00 0.00 0.00 64 1004.8
20260504044517 17 89 0.0 0.0 0.00 0.00 0.00 65 1005.1
20260504043012 17 89 0.0 1.6 0.00 0.00 0.00 66 1005.4
20260504041508 17 4 0.0 0.0 0.00 0.00 0.00 65 1005.6
20260504040106 17 127 0.0 0.0 0.00 0.00 0.00 63 1005.7
20260504034508 18 127 0.0 3.2 0.00 0.00 0.00 63 1005.8
20260504033002 17 259 0.0 0.0 0.00 0.00 0.00 65 1006.1
20260504031506 17 259 0.0 0.0 0.00 0.00 0.00 63 1006.4
20260504030105 17 259 0.0 0.0 0.00 0.00 0.00 66 1006.1
20260504024511 17 259 0.0 0.0 0.00 0.00 0.00 65 1005.9
20260504023007 18 259 0.0 0.0 0.00 0.00 0.00 64 1005.8
20260504021504 18 259 0.0 0.0 0.00 0.00 0.00 59 1005.7
20260504020008 20 259 0.0 0.0 0.00 0.00 0.00 55 1005.6
20260504014517 20 259 0.0 0.0 0.00 0.00 0.00 53 1005.5
20260504013107 21 259 0.0 0.0 0.00 0.00 0.00 51 1005.4
20260504011501 21 259 0.0 0.0 0.00 0.00 0.00 49 1005.3
20260504010111 22 259 0.0 0.0 0.00 0.00 0.00 47 1005.2
20260504004511 22 259 0.0 0.0 0.00 0.00 0.00 45 1005.2
20260504003031 23 259 0.0 3.2 0.00 0.00 0.00 44 1005.2
20260504001528 23 164 0.0 1.6 0.00 0.00 0.00 42 1005.1
20260504000014 24 155 0.0 8.0 0.00 0.00 0.00 42 1005.2